Overview Statistics Trail Chart Weather Telemetry Raw packets
 

This is the latest recevied weather packets stored in our database for station/object IW9CSJ-13. If no packets are shown the sender has not sent any weather packets the latest 10 day(s).

<< 4 5 6 7 8 9 10 >>
Time Temp. Humidity Pressure Rain* Wind** Luminosity Snow
1788245120 27.78° C 66% 1016.6 hPa 0 mm - - -
1788244821 27.78° C 65% 1016.5 hPa 0 mm - - -
1788244521 27.78° C 66% 1016.5 hPa 0 mm - - -
1788244224 27.22° C 66% 1016.4 hPa 0 mm - - -
1788201020 26.67° C 69% 1014.8 hPa 0 mm - - -
1788200427 26.67° C 69% 1014.8 hPa 0 mm - - -
1788200121 26.67° C 69% 1014.7 hPa 0 mm - - -
1788199820 26.67° C 70% 1014.8 hPa 0 mm - - -
1788198021 26.67° C 68% 1014.8 hPa 0 mm - - -
1788197721 26.67° C 67% 1015 hPa 0 mm - - -
1788197421 26.67° C 68% 1015 hPa 0 mm - - -
1788197120 26.67° C 67% 1015.1 hPa 0 mm - - -
1788195020 27.22° C 66% 1015.1 hPa 0 mm - - -
1788194421 27.78° C 64% 1015.1 hPa 0 mm - - -
1788194120 27.78° C 63% 1015 hPa 0 mm - - -
1788193821 27.78° C 63% 1015 hPa 0 mm - - -
1788193521 27.78° C 62% 1015.2 hPa 0 mm - - -
1788190822 28.33° C 59% 1014.9 hPa 0 mm - - -
1788190520 28.33° C 60% 1015 hPa 0 mm - - -
1788190220 28.89° C 58% 1014.9 hPa 0 mm - - -
1788186621 29.44° C 51% 1015.1 hPa 0 mm - - -
1788184520 30.56° C 49% 1015.3 hPa 0 mm - - -
1788184221 30.56° C 48% 1015.2 hPa 0 mm - - -
1788183620 31.11° C 44% 1015.2 hPa 0 mm - - -
1788183020 31.11° C 41% 1015.2 hPa 0 mm - - -

* Rain latest hour (hover to see other rain measurements)
** Current wind speed in m/s (hover to see current wind gust speed)